Вернуться в каталог

COSMOS 2251 DEB

АктивенLEO
NORAD 38006·DEBRIS·🇷🇺 Russia

Запущен Jun 16, 1993 с Plesetsk Cosmodrome

Loading…

Ближайшие Пролёты (ближайшие 24 часа)

TLE

СвежийSource: Space-Track

Эпоха: Sep 13, 2026, 06:43 UTC

1 38006U 93036BRH 26256.27987848  .00003506  00000-0  89819-3 0  9994
2 38006  73.8425 238.1488 0066286 137.3753 223.2578 14.49419135669347

Отслеживайте COSMOS 2251 DEB в реальном времени с AllMySat

Download on the App Store